EWG30Y LOWW-EDDK

Flight info

Callsign EWG30Y
Flight time 1h 9m
Altitude 36000
Route BUWUT2B/16 BUWUT DCT DITIS DCT RAPET T843 DEMAB T842 EBANA T841 ERNEP ERNEP2V
Aircraft A321/M-SDE3FGHIRWY/LB1

Departure

Time 2026-05-06 18:03
Airport Vienna International Airport (LOWW)

Arrival

Time 2026-05-06 19:12
Airport Cologne Bonn Airport (EDDK)
Time Latitude Longitude Altitude Speed Heading
2026-05-06 17:41 48.11868 16.56883 601 ft 0 kts 200°
2026-05-06 17:55 48.11871 16.56885 600 ft 3 kts 201°
2026-05-06 17:55 48.11895 16.56900 600 ft 4 kts 200°
2026-05-06 17:55 48.11920 16.56906 600 ft 4 kts 161°
2026-05-06 17:55 48.11939 16.56886 599 ft 3 kts 118°
2026-05-06 17:56 48.11941 16.56882 599 ft 0 kts 116°
2026-05-06 17:58 48.11940 16.56883 599 ft 0 kts 116°
2026-05-06 17:58 48.11942 16.56892 599 ft 2 kts 76°
2026-05-06 17:59 48.11949 16.56932 583 ft 6 kts 76°
2026-05-06 17:59 48.11947 16.56991 600 ft 5 kts 105°
2026-05-06 17:59 48.11930 16.57053 601 ft 8 kts 114°
2026-05-06 17:59 48.11909 16.57122 602 ft 7 kts 115°
2026-05-06 18:00 48.11883 16.57179 603 ft 7 kts 135°
2026-05-06 18:00 48.11850 16.57232 610 ft 8 kts 123°
2026-05-06 18:00 48.11851 16.57303 620 ft 7 kts 46°
2026-05-06 18:00 48.11903 16.57305 610 ft 8 kts 345°
2026-05-06 18:01 48.11971 16.57298 618 ft 11 kts 24°
2026-05-06 18:01 48.12004 16.57393 607 ft 10 kts 70°
2026-05-06 18:01 48.12011 16.57497 605 ft 10 kts 97°
2026-05-06 18:01 48.11993 16.57613 604 ft 13 kts 104°
2026-05-06 18:02 48.11969 16.57745 604 ft 13 kts 111°
2026-05-06 18:02 48.11914 16.57840 611 ft 12 kts 154°
2026-05-06 18:02 48.11704 16.57936 613 ft 64 kts 164°
2026-05-06 18:02 48.11046 16.58216 617 ft 127 kts 165°
2026-05-06 18:03 48.10057 16.58655 634 ft 170 kts 163°
2026-05-06 18:03 48.08911 16.59138 1255 ft 170 kts 163°
2026-05-06 18:03 48.07777 16.59608 1969 ft 171 kts 167°
2026-05-06 18:03 48.06590 16.60131 2346 ft 185 kts 161°
2026-05-06 18:04 48.05491 16.61224 2797 ft 198 kts 141°
2026-05-06 18:04 48.04731 16.63015 3278 ft 214 kts 118°
2026-05-06 18:04 48.04549 16.65296 3769 ft 232 kts 90°
2026-05-06 18:04 48.05140 16.67611 4247 ft 247 kts 57°
2026-05-06 18:05 48.06379 16.69381 4686 ft 255 kts 39°
2026-05-06 18:05 48.07848 16.71066 4825 ft 278 kts 37°
2026-05-06 18:05 48.09474 16.72845 5095 ft 298 kts 36°
2026-05-06 18:05 48.11253 16.74449 5702 ft 301 kts 19°
2026-05-06 18:06 48.13296 16.75024 6377 ft 298 kts 354°
2026-05-06 18:06 48.14662 16.74725 6799 ft 294 kts 338°
2026-05-06 18:06 48.16920 16.72716 7628 ft 285 kts 308°
2026-05-06 18:06 48.18102 16.70373 8285 ft 283 kts 299°
2026-05-06 18:07 48.18860 16.68720 8727 ft 285 kts 300°
2026-05-06 18:07 48.19978 16.66300 9378 ft 288 kts 300°
2026-05-06 18:07 48.21147 16.63779 9987 ft 293 kts 300°
2026-05-06 18:07 48.22330 16.61219 10136 ft 313 kts 300°
2026-05-06 18:08 48.23609 16.58441 10245 ft 333 kts 301°
2026-05-06 18:08 48.24957 16.55518 10498 ft 347 kts 301°
2026-05-06 18:08 48.26343 16.52531 11006 ft 352 kts 301°
2026-05-06 18:08 48.27741 16.49526 11530 ft 355 kts 301°
2026-05-06 18:09 48.29162 16.46462 12082 ft 359 kts 301°
2026-05-06 18:09 48.30595 16.43363 12633 ft 363 kts 301°
2026-05-06 18:09 48.32038 16.40237 13190 ft 366 kts 301°
2026-05-06 18:09 48.33498 16.37067 13692 ft 370 kts 301°
2026-05-06 18:10 48.34943 16.33920 14216 ft 372 kts 301°
2026-05-06 18:10 48.36360 16.30831 14727 ft 374 kts 300°
2026-05-06 18:10 48.37832 16.27622 15266 ft 375 kts 300°
2026-05-06 18:10 48.39311 16.24385 15790 ft 376 kts 300°
2026-05-06 18:11 48.40799 16.21129 16339 ft 378 kts 300°
2026-05-06 18:11 48.42289 16.17869 16868 ft 379 kts 300°
2026-05-06 18:11 48.43789 16.14586 17395 ft 381 kts 300°
2026-05-06 18:11 48.45293 16.11282 17919 ft 383 kts 300°
2026-05-06 18:12 48.46800 16.07962 18359 ft 385 kts 299°
2026-05-06 18:12 48.48311 16.04625 18764 ft 387 kts 299°
2026-05-06 18:12 48.49835 16.01255 19171 ft 389 kts 299°
2026-05-06 18:12 48.51362 15.97879 19574 ft 391 kts 299°
2026-05-06 18:13 48.52906 15.94472 19978 ft 394 kts 299°
2026-05-06 18:13 48.54454 15.91056 20408 ft 395 kts 299°
2026-05-06 18:13 48.56006 15.87627 20816 ft 397 kts 299°
2026-05-06 18:13 48.57545 15.84219 21208 ft 399 kts 299°
2026-05-06 18:14 48.59113 15.80738 21603 ft 401 kts 299°
2026-05-06 18:14 48.60681 15.77244 22006 ft 403 kts 298°
2026-05-06 18:14 48.62260 15.73722 22393 ft 405 kts 298°
2026-05-06 18:14 48.63840 15.70195 22778 ft 407 kts 298°
2026-05-06 18:15 48.65433 15.66636 23171 ft 410 kts 298°
2026-05-06 18:15 48.67032 15.63059 23505 ft 412 kts 298°
2026-05-06 18:15 48.68641 15.59461 23831 ft 414 kts 298°
2026-05-06 18:15 48.70256 15.55843 24162 ft 415 kts 298°
2026-05-06 18:16 48.71878 15.52207 24502 ft 417 kts 298°
2026-05-06 18:16 48.73500 15.48563 24826 ft 419 kts 298°
2026-05-06 18:16 48.75127 15.44898 25140 ft 420 kts 298°
2026-05-06 18:16 48.76764 15.41209 25459 ft 422 kts 298°
2026-05-06 18:17 48.78399 15.37525 25783 ft 423 kts 298°
2026-05-06 18:17 48.80045 15.33811 26117 ft 424 kts 297°
2026-05-06 18:17 48.81690 15.30091 26427 ft 426 kts 297°
2026-05-06 18:17 48.83341 15.26352 26746 ft 427 kts 297°
2026-05-06 18:18 48.84993 15.22605 27060 ft 428 kts 297°
2026-05-06 18:18 48.86649 15.18840 27380 ft 430 kts 297°
2026-05-06 18:18 48.88311 15.15054 27685 ft 431 kts 297°
2026-05-06 18:18 48.89976 15.11258 27988 ft 432 kts 297°
2026-05-06 18:19 48.91698 15.07490 28290 ft 436 kts 299°
2026-05-06 18:19 48.93435 15.03891 28566 ft 438 kts 300°
2026-05-06 18:19 48.95271 15.00205 28852 ft 440 kts 301°
2026-05-06 18:19 48.97133 14.96508 29132 ft 441 kts 301°
2026-05-06 18:20 48.98942 14.92894 29351 ft 443 kts 300°
2026-05-06 18:20 49.00825 14.89087 29611 ft 444 kts 300°
2026-05-06 18:20 49.02669 14.85310 29832 ft 445 kts 300°
2026-05-06 18:20 49.04510 14.81509 30052 ft 445 kts 299°
2026-05-06 18:21 49.06338 14.77718 30337 ft 444 kts 299°
2026-05-06 18:21 49.08067 14.73836 30574 ft 437 kts 292°
2026-05-06 18:21 49.09511 14.69783 30803 ft 436 kts 291°
2026-05-06 18:21 49.10952 14.65716 31054 ft 436 kts 291°
2026-05-06 18:22 49.12386 14.61657 31312 ft 435 kts 291°
2026-05-06 18:22 49.13805 14.57634 31532 ft 435 kts 291°
2026-05-06 18:22 49.15253 14.53521 31790 ft 435 kts 291°
2026-05-06 18:22 49.16682 14.49454 32034 ft 434 kts 291°
2026-05-06 18:23 49.18085 14.45435 32268 ft 434 kts 290°
2026-05-06 18:23 49.19525 14.41304 32520 ft 434 kts 290°
2026-05-06 18:23 49.20923 14.37293 32752 ft 433 kts 290°
2026-05-06 18:23 49.22342 14.33228 32988 ft 433 kts 290°
2026-05-06 18:24 49.23778 14.29111 33224 ft 433 kts 291°
2026-05-06 18:24 49.25191 14.25052 33465 ft 432 kts 290°
2026-05-06 18:24 49.26605 14.20983 33676 ft 432 kts 290°
2026-05-06 18:24 49.27994 14.16967 33725 ft 434 kts 290°
2026-05-06 18:25 49.30835 14.08714 33731 ft 441 kts 291°
2026-05-06 18:25 49.33706 14.00395 33734 ft 442 kts 291°
2026-05-06 18:26 49.36576 13.92062 33736 ft 442 kts 291°
2026-05-06 18:26 49.39426 13.83724 33747 ft 441 kts 291°
2026-05-06 18:27 49.42273 13.75373 33749 ft 441 kts 291°
2026-05-06 18:27 49.45110 13.67018 33749 ft 441 kts 291°
2026-05-06 18:28 49.47946 13.58646 33753 ft 441 kts 291°
2026-05-06 18:28 49.50761 13.50290 33755 ft 440 kts 291°
2026-05-06 18:29 49.53549 13.41997 33754 ft 440 kts 291°
2026-05-06 18:29 49.56362 13.33632 33757 ft 440 kts 291°
2026-05-06 18:30 49.59164 13.25275 33760 ft 439 kts 291°
2026-05-06 18:30 49.61955 13.16902 33758 ft 439 kts 290°
2026-05-06 18:31 49.64734 13.08522 33756 ft 438 kts 290°
2026-05-06 18:31 49.67506 13.00161 33752 ft 438 kts 290°
2026-05-06 18:32 49.70272 12.91781 33765 ft 438 kts 290°
2026-05-06 18:32 49.73029 12.83386 33765 ft 438 kts 290°
2026-05-06 18:33 49.75779 12.74994 33766 ft 438 kts 290°
2026-05-06 18:33 49.78522 12.66584 33755 ft 437 kts 290°
2026-05-06 18:34 49.81259 12.58176 33764 ft 438 kts 290°
2026-05-06 18:34 49.83991 12.49751 33769 ft 438 kts 290°
2026-05-06 18:35 49.86732 12.41300 33771 ft 439 kts 290°
2026-05-06 18:35 49.89473 12.32826 33776 ft 440 kts 290°
2026-05-06 18:36 49.92196 12.24331 33771 ft 440 kts 289°
2026-05-06 18:36 49.94895 12.15874 33775 ft 440 kts 289°
2026-05-06 18:37 49.97174 12.08738 33782 ft 441 kts 289°
2026-05-06 18:37 50.00334 11.98813 33788 ft 441 kts 289°
2026-05-06 18:38 50.03055 11.90234 33788 ft 442 kts 289°
2026-05-06 18:38 50.05759 11.81669 33791 ft 442 kts 289°
2026-05-06 18:39 50.08461 11.73086 33792 ft 442 kts 289°
2026-05-06 18:40 50.12511 11.60154 33792 ft 443 kts 289°
2026-05-06 18:40 50.15197 11.51527 33796 ft 443 kts 289°
2026-05-06 18:41 50.17892 11.42873 33799 ft 443 kts 289°
2026-05-06 18:41 50.20579 11.34217 33801 ft 444 kts 289°
2026-05-06 18:42 50.23253 11.25544 33799 ft 444 kts 289°
2026-05-06 18:42 50.25935 11.16811 33800 ft 445 kts 289°
2026-05-06 18:43 50.28611 11.08081 33798 ft 446 kts 289°
2026-05-06 18:43 50.31289 10.99330 33795 ft 446 kts 289°
2026-05-06 18:44 50.33959 10.90551 33797 ft 447 kts 289°
2026-05-06 18:44 50.36622 10.81754 33799 ft 447 kts 289°
2026-05-06 18:45 50.39284 10.72946 33797 ft 448 kts 289°
2026-05-06 18:45 50.41942 10.64105 33797 ft 448 kts 289°
2026-05-06 18:46 50.44570 10.55342 32654 ft 447 kts 289°
2026-05-06 18:46 50.45890 10.50918 32019 ft 448 kts 289°
2026-05-06 18:46 50.47014 10.46371 31803 ft 447 kts 281°
2026-05-06 18:47 50.48394 10.36886 31793 ft 447 kts 277°
2026-05-06 18:47 50.49736 10.27369 30938 ft 446 kts 278°
2026-05-06 18:47 50.50405 10.22591 30040 ft 449 kts 278°
2026-05-06 18:48 50.51072 10.17768 29224 ft 453 kts 278°
2026-05-06 18:48 50.51738 10.12931 28387 ft 452 kts 279°
2026-05-06 18:48 50.52414 10.08131 27565 ft 450 kts 282°
2026-05-06 18:48 50.53481 10.03508 26825 ft 452 kts 294°
2026-05-06 18:49 50.55091 9.99300 26341 ft 446 kts 302°
2026-05-06 18:49 50.56666 9.95154 25748 ft 437 kts 292°
2026-05-06 18:49 50.57855 9.90784 25133 ft 432 kts 289°
2026-05-06 18:49 50.58907 9.86365 24707 ft 436 kts 287°
2026-05-06 18:50 50.59939 9.81767 24273 ft 455 kts 287°
2026-05-06 18:50 50.61018 9.76996 23850 ft 467 kts 288°
2026-05-06 18:50 50.62146 9.72199 23418 ft 467 kts 289°
2026-05-06 18:50 50.63310 9.67446 22940 ft 465 kts 290°
2026-05-06 18:51 50.64501 9.62712 22440 ft 461 kts 290°
2026-05-06 18:51 50.65687 9.58047 21960 ft 457 kts 290°
2026-05-06 18:51 50.66866 9.53409 21484 ft 454 kts 290°
2026-05-06 18:51 50.68022 9.48830 21017 ft 450 kts 290°
2026-05-06 18:52 50.69168 9.44239 20561 ft 446 kts 290°
2026-05-06 18:52 50.70279 9.39747 20080 ft 443 kts 289°
2026-05-06 18:52 50.71018 9.36744 19777 ft 440 kts 289°
2026-05-06 18:52 50.72108 9.32287 19297 ft 430 kts 289°
2026-05-06 18:53 50.73169 9.27950 18859 ft 418 kts 289°
2026-05-06 18:53 50.74203 9.23728 18451 ft 406 kts 289°
2026-05-06 18:53 50.75208 9.19622 18048 ft 396 kts 289°
2026-05-06 18:53 50.76187 9.15620 17588 ft 387 kts 289°
2026-05-06 18:54 50.77144 9.11703 17144 ft 378 kts 289°
2026-05-06 18:54 50.78081 9.07857 16695 ft 371 kts 289°
2026-05-06 18:54 50.78994 9.04094 16261 ft 363 kts 289°
2026-05-06 18:54 50.79889 9.00403 15823 ft 356 kts 289°
2026-05-06 18:55 50.80769 8.96778 15389 ft 350 kts 289°
2026-05-06 18:55 50.81628 8.93225 14970 ft 344 kts 288°
2026-05-06 18:55 50.82474 8.89717 14560 ft 338 kts 288°
2026-05-06 18:55 50.83304 8.86268 14150 ft 335 kts 288°
2026-05-06 18:56 50.84129 8.82834 13749 ft 333 kts 288°
2026-05-06 18:56 50.84946 8.79422 13305 ft 331 kts 288°
2026-05-06 18:56 50.85755 8.76035 12857 ft 328 kts 288°
2026-05-06 18:56 50.86561 8.72663 12416 ft 326 kts 288°
2026-05-06 18:57 50.87361 8.69314 11980 ft 324 kts 288°
2026-05-06 18:57 50.88153 8.66001 11532 ft 319 kts 288°
2026-05-06 18:57 50.88929 8.62754 11242 ft 310 kts 288°
2026-05-06 18:57 50.89679 8.59620 11101 ft 297 kts 288°
2026-05-06 18:58 50.90393 8.56620 10983 ft 288 kts 288°
2026-05-06 18:58 50.91097 8.53656 10853 ft 287 kts 288°
2026-05-06 18:58 50.91795 8.50699 10739 ft 286 kts 288°
2026-05-06 18:58 50.92492 8.47747 10616 ft 286 kts 288°
2026-05-06 18:59 50.93180 8.44830 10491 ft 286 kts 288°
2026-05-06 18:59 50.93899 8.41733 10379 ft 309 kts 285°
2026-05-06 18:59 50.94220 8.38404 10099 ft 309 kts 265°
2026-05-06 18:59 50.93693 8.35106 9835 ft 307 kts 246°
2026-05-06 19:00 50.92892 8.31960 9833 ft 310 kts 247°
2026-05-06 19:00 50.92101 8.28802 9843 ft 312 kts 248°
2026-05-06 19:00 50.91304 8.25596 9845 ft 313 kts 248°
2026-05-06 19:00 50.90476 8.22251 9842 ft 330 kts 248°
2026-05-06 19:01 50.89630 8.18834 9836 ft 335 kts 248°
2026-05-06 19:01 50.88777 8.15392 9837 ft 337 kts 248°
2026-05-06 19:01 50.87918 8.11929 9842 ft 337 kts 248°
2026-05-06 19:01 50.87068 8.08527 9841 ft 337 kts 248°
2026-05-06 19:02 50.86202 8.05069 9846 ft 338 kts 248°
2026-05-06 19:02 50.85331 8.01599 9848 ft 338 kts 248°
2026-05-06 19:02 50.84468 7.98177 9842 ft 323 kts 248°
2026-05-06 19:02 50.83657 7.94968 9848 ft 317 kts 248°
2026-05-06 19:03 50.82845 7.91751 9560 ft 313 kts 249°
2026-05-06 19:03 50.82044 7.88579 9251 ft 304 kts 249°
2026-05-06 19:03 50.81276 7.85535 9111 ft 291 kts 249°
2026-05-06 19:03 50.80540 7.82629 8851 ft 280 kts 249°
2026-05-06 19:04 50.79822 7.79795 8313 ft 276 kts 249°
2026-05-06 19:04 50.79105 7.76979 7872 ft 276 kts 249°
2026-05-06 19:04 50.78392 7.74182 7484 ft 275 kts 249°
2026-05-06 19:04 50.77677 7.71384 7131 ft 274 kts 249°
2026-05-06 19:05 50.76970 7.68611 6781 ft 272 kts 249°
2026-05-06 19:05 50.76264 7.65844 6444 ft 271 kts 249°
2026-05-06 19:05 50.75565 7.63076 6086 ft 270 kts 252°
2026-05-06 19:05 50.74992 7.60267 5717 ft 268 kts 256°
2026-05-06 19:06 50.74496 7.57442 5361 ft 267 kts 256°
2026-05-06 19:06 50.74010 7.54617 5009 ft 266 kts 256°
2026-05-06 19:06 50.73525 7.51822 4764 ft 260 kts 256°
2026-05-06 19:06 50.73059 7.49163 4640 ft 250 kts 256°
2026-05-06 19:07 50.72596 7.46537 4406 ft 243 kts 256°
2026-05-06 19:07 50.72160 7.44064 4079 ft 241 kts 256°
2026-05-06 19:07 50.71718 7.41551 3979 ft 231 kts 259°
2026-05-06 19:07 50.71681 7.39061 4002 ft 227 kts 280°
2026-05-06 19:08 50.72067 7.36688 3748 ft 221 kts 296°
2026-05-06 19:08 50.72928 7.34710 3330 ft 218 kts 317°
2026-05-06 19:08 50.74041 7.33103 3012 ft 215 kts 319°
2026-05-06 19:08 50.75130 7.31545 2992 ft 202 kts 319°
2026-05-06 19:09 50.76135 7.30101 2856 ft 189 kts 319°
2026-05-06 19:09 50.77080 7.28742 2636 ft 179 kts 319°
2026-05-06 19:09 50.77972 7.27457 2414 ft 169 kts 319°
2026-05-06 19:09 50.78836 7.26214 2179 ft 166 kts 319°
2026-05-06 19:10 50.79680 7.24999 1947 ft 160 kts 319°
2026-05-06 19:10 50.80449 7.23890 1750 ft 151 kts 319°
2026-05-06 19:10 50.81159 7.22865 1542 ft 142 kts 319°
2026-05-06 19:10 50.81885 7.21819 1344 ft 140 kts 319°
2026-05-06 19:11 50.82604 7.20776 1134 ft 140 kts 318°
2026-05-06 19:11 50.83310 7.19734 945 ft 139 kts 319°
2026-05-06 19:11 50.84031 7.18720 748 ft 139 kts 320°
2026-05-06 19:11 50.84746 7.17690 580 ft 139 kts 318°
2026-05-06 19:12 50.85456 7.16672 387 ft 138 kts 318°
2026-05-06 19:12 50.86144 7.15663 296 ft 123 kts 318°
2026-05-06 19:12 50.86659 7.14919 272 ft 76 kts 317°
2026-05-06 19:12 50.86835 7.14616 263 ft 28 kts 298°
2026-05-06 19:13 50.86877 7.14427 260 ft 6 kts 277°
2026-05-06 19:13 50.86885 7.14345 258 ft 10 kts 279°
2026-05-06 19:13 50.86898 7.14218 255 ft 14 kts 279°
2026-05-06 19:13 50.86943 7.14092 254 ft 14 kts 308°
2026-05-06 19:14 50.87020 7.13945 246 ft 20 kts 313°
2026-05-06 19:14 50.87104 7.13821 242 ft 15 kts 317°
2026-05-06 19:14 50.87191 7.13695 238 ft 19 kts 318°
2026-05-06 19:14 50.87273 7.13578 239 ft 12 kts 317°
2026-05-06 19:15 50.87342 7.13478 233 ft 15 kts 317°
2026-05-06 19:15 50.87423 7.13359 233 ft 16 kts 316°
2026-05-06 19:15 50.87507 7.13234 233 ft 17 kts 317°
2026-05-06 19:15 50.87597 7.13106 233 ft 18 kts 318°
2026-05-06 19:16 50.87693 7.12968 233 ft 18 kts 319°
2026-05-06 19:16 50.87769 7.12850 232 ft 16 kts 316°
2026-05-06 19:16 50.87784 7.12735 232 ft 11 kts 263°
2026-05-06 19:16 50.87812 7.12644 232 ft 9 kts 324°
2026-05-06 19:17 50.87869 7.12612 232 ft 9 kts 357°
2026-05-06 19:17 50.87933 7.12643 233 ft 10 kts 32°
2026-05-06 19:17 50.87986 7.12642 232 ft 7 kts 327°
2026-05-06 19:17 50.88019 7.12596 232 ft 7 kts 317°
2026-05-06 19:18 50.88055 7.12545 232 ft 7 kts 318°
2026-05-06 19:18 50.88098 7.12485 232 ft 9 kts 317°
2026-05-06 19:18 50.88144 7.12402 232 ft 10 kts 303°
2026-05-06 19:18 50.88151 7.12305 232 ft 8 kts 263°
2026-05-06 19:19 50.88142 7.12227 232 ft 6 kts 250°
2026-05-06 19:19 50.88120 7.12185 232 ft 4 kts 219°
2026-05-06 19:19 50.88099 7.12161 233 ft 4 kts 215°
2026-05-06 19:19 50.88082 7.12141 232 ft 2 kts 216°
2026-05-06 19:20 50.88081 7.12140 232 ft 0 kts 216°